Weather History for KBAF - October, 2013

Change the Weather History Date:

Sunday, October 6, 2013

  Actual Average Record
Temperature  
Mean Temperature 58 °F -  
Max Temperature 62 °F 63 °F 87 °F (2007)
Min Temperature 55 °F 40 °F 28 °F (1996)
Degree Days  
Heating Degree Days 7    
Growing Degree Days 8 (Base 50)    
Moisture  
Dew Point 56 °F    
Average Humidity 94    
Maximum Humidity 100    
Minimum Humidity 88    
Precipitation  
Precipitation 0.36 in - - ()
Sea Level Pressure  
Sea Level Pressure 30.15 in    
Wind  
Wind Speed 5 mph (NNE)    
Max Wind Speed 8 mph    
Max Gust Speed -    
Visibility 4 miles    
Events Rain    
Averages and records for this station are not official NWS values.
T = Trace of Precipitation, MM = Missing Value Source: NWS Daily Summary

Daily Weather History Graph

Daily Weather History Graph

Search for Another Location

Airport or City:

Trip Planner

Search our weather history database for the weather conditions in past years. The results will help you decide how hot, cold, wet, or windy it might be!

Date:

Astronomy

Oct. 06, 2013 Rise Set
Actual Time 6:53 AM EDT 6:23 PM EDT
Civil Twilight 6:25 AM EDT 6:51 PM EDT
Nautical Twilight 5:53 AM EDT 7:23 PM EDT
Astronomical Twilight 5:20 AM EDT 7:56 PM EDT
Moon 8:37 AM EDT (10/6) 7:18 PM EDT (10/6)
Length of Visible Light 12h 25m
Length of Day
11h 29m
Waxing Crescent, 3% of the Moon is Illuminated
Oct 6
Waxing Crescent
Oct 11
First Quarter
Oct 18
Full
Oct 26
Last Quarter
Nov 3
New

Hourly Weather History & Observations

Time (EDT) Temp. Dew Point Humidity Pressure Visibility Wind Dir Wind Speed Gust Speed Precip Events Conditions
12:53 AM 61.0 °F 59.0 °F 93% 30.11 in 9.0 mi North 6.9 mph - 0.00 in   Overcast
1:53 AM 61.0 °F 59.0 °F 93% 30.11 in 3.0 mi North 4.6 mph - N/A   Overcast
2:05 AM 60.8 °F 59.0 °F 94% 30.11 in 3.0 mi North 3.5 mph - N/A   Overcast
2:49 AM 60.8 °F 59.0 °F 94% 30.10 in 2.0 mi North 3.5 mph - 0.01 in Rain Light Rain
2:53 AM 61.0 °F 59.0 °F 93% 30.09 in 2.0 mi North 4.6 mph - 0.02 in Rain Light Rain
3:11 AM 60.8 °F 59.0 °F 94% 30.10 in 4.0 mi North 5.8 mph - 0.03 in Rain Light Rain
3:53 AM 61.0 °F 59.0 °F 93% 30.09 in 7.0 mi Calm Calm - 0.03 in   Overcast
4:53 AM 61.0 °F 59.0 °F 93% 30.10 in 2.5 mi North 4.6 mph - 0.05 in Rain Heavy Rain
5:01 AM 60.8 °F 60.8 °F 100% 30.10 in 5.0 mi North 3.5 mph - 0.00 in Rain Light Rain
5:53 AM 61.0 °F 60.1 °F 97% 30.11 in 7.0 mi North 3.5 mph - 0.03 in Rain Light Rain
6:53 AM 61.0 °F 59.0 °F 93% 30.13 in 2.5 mi ENE 6.9 mph - 0.01 in Rain Light Rain
6:58 AM 60.8 °F 59.0 °F 94% 30.13 in 2.5 mi East 6.9 mph - 0.01 in Rain Light Rain
7:53 AM 59.0 °F 57.0 °F 93% 30.16 in 2.5 mi Variable 3.5 mph - 0.01 in Rain Light Rain
8:00 AM 59.0 °F 57.2 °F 94% 30.16 in 2.0 mi East 8.1 mph - 0.00 in Rain Light Rain
8:53 AM 59.0 °F 57.0 °F 93% 30.17 in 2.0 mi East 6.9 mph - 0.01 in   Overcast
9:53 AM 57.9 °F 55.9 °F 93% 30.19 in 2.5 mi ENE 3.5 mph - 0.00 in   Overcast
10:53 AM 57.9 °F 55.9 °F 93% 30.19 in 2.5 mi ENE 3.5 mph - 0.01 in   Overcast
11:00 AM 57.2 °F 55.4 °F 94% 30.19 in 3.0 mi ENE 4.6 mph - N/A   Overcast
11:53 AM 57.9 °F 55.9 °F 93% 30.19 in 3.0 mi NE 5.8 mph - 0.00 in   Overcast
12:22 PM 57.2 °F 55.4 °F 94% 30.19 in 10.0 mi NE 4.6 mph - 0.00 in Rain Light Rain
12:53 PM 57.9 °F 55.9 °F 93% 30.18 in 8.0 mi ENE 3.5 mph - 0.01 in Rain Light Rain
1:03 PM 57.2 °F 55.4 °F 94% 30.18 in 5.0 mi ENE 6.9 mph - 0.01 in Rain Rain
1:18 PM 57.2 °F 55.4 °F 94% 30.18 in 2.5 mi NE 5.8 mph - 0.05 in Rain Rain
1:23 PM 57.2 °F 55.4 °F 94% 30.18 in 3.0 mi ENE 8.1 mph - 0.06 in Rain Rain
1:34 PM 57.2 °F 55.4 °F 94% 30.17 in 5.0 mi ENE 6.9 mph - 0.08 in Rain Rain
1:46 PM 57.2 °F 55.4 °F 94% 30.17 in 8.0 mi ENE 8.1 mph - 0.08 in Rain Light Rain
1:53 PM 57.0 °F 55.0 °F 93% 30.17 in 5.0 mi ENE 8.1 mph - 0.10 in Rain Rain
2:07 PM 57.2 °F 55.4 °F 94% 30.17 in 4.0 mi ENE 5.8 mph - 0.02 in Rain Rain
2:22 PM 57.2 °F 53.6 °F 88% 30.16 in 10.0 mi ENE 4.6 mph - 0.02 in Rain Light Rain
2:30 PM 57.2 °F 55.4 °F 94% 30.17 in 10.0 mi NNE 5.8 mph - 0.02 in   Overcast
2:53 PM 55.9 °F 54.0 °F 93% 30.17 in 10.0 mi NE 6.9 mph - 0.02 in   Overcast
3:41 PM 55.4 °F 53.6 °F 94% 30.16 in 2.5 mi NNE 5.8 mph - N/A   Overcast
3:53 PM 55.9 °F 54.0 °F 93% 30.16 in 2.5 mi NE 4.6 mph - N/A   Overcast
4:09 PM 55.4 °F 53.6 °F 94% 30.16 in 1.5 mi NNE 5.8 mph - N/A   Overcast
4:53 PM 55.9 °F 54.0 °F 93% 30.16 in 1.8 mi NNE 4.6 mph - 0.01 in   Overcast
5:40 PM 55.4 °F 53.6 °F 94% 30.15 in 1.5 mi NNE 5.8 mph - N/A   Overcast
5:51 PM 55.4 °F 53.6 °F 94% 30.15 in 1.8 mi North 5.8 mph - N/A   Overcast
5:53 PM 55.9 °F 54.0 °F 93% 30.15 in 1.8 mi NNE 6.9 mph - N/A   Overcast
6:01 PM 55.4 °F 53.6 °F 94% 30.15 in 1.8 mi NNE 6.9 mph - 0.01 in   Overcast
6:08 PM 55.4 °F 53.6 °F 94% 30.15 in 1.8 mi North 6.9 mph - 0.01 in   Overcast
6:31 PM 55.4 °F 53.6 °F 94% 30.15 in 2.5 mi NNE 5.8 mph - 0.01 in   Overcast
6:53 PM 55.0 °F 54.0 °F 96% 30.16 in 2.5 mi NNE 5.8 mph - 0.01 in   Overcast
7:02 PM 55.4 °F 53.6 °F 94% 30.15 in 3.0 mi NNE 5.8 mph - N/A   Overcast
7:04 PM 55.4 °F 53.6 °F 94% 30.15 in 2.5 mi North 4.6 mph - N/A   Overcast
7:53 PM 55.0 °F 54.0 °F 96% 30.15 in 2.5 mi North 5.8 mph - 0.01 in   Overcast
8:53 PM 55.0 °F 54.0 °F 96% 30.15 in 2.5 mi NNE 4.6 mph - 0.01 in   Overcast
9:44 PM 55.4 °F 53.6 °F 94% 30.14 in 3.0 mi North 4.6 mph - 0.01 in   Overcast
9:53 PM 55.0 °F 54.0 °F 96% 30.14 in 2.5 mi North 4.6 mph - 0.01 in   Overcast
10:35 PM 55.4 °F 53.6 °F 94% 30.12 in 3.0 mi NE 4.6 mph - N/A   Overcast
10:53 PM 55.0 °F 54.0 °F 96% 30.13 in 3.0 mi NNW 5.8 mph - 0.01 in   Overcast
11:53 PM 55.0 °F 54.0 °F 96% 30.12 in 3.0 mi NNE 3.5 mph - N/A   Overcast